Orbital Elements at Epoch 2459000.5 (2020-May-31.0) TDB
Reference: JPL 34 (heliocentric ecliptic J2000)
Element | Value | Uncertainty (1-sigma) | Units |
e | .3196034763984882 | 8.8643e-07 | |
a | 1.408306173375656 | 2.3638e-06 | au |
q | .9582066245313445 | 3.6492e-07 | au |
i | 5.303077463243892 | 5.1153e-06 | deg |
node | 320.7532338802922 | 3.4638e-06 | deg |
peri | 208.1176651108663 | 0.00021031 | deg |
M | 122.0998616128631 | 0.0011057 | deg |
tp | 2458793.458825630760 (2019-Nov-05.95882563) | 0.0013537 | TDB |
period | 610.4415008204594 1.67 | 0.0015369 4.208e-06 | d yr |
n | .5897370993226126 | 1.4848e-06 | deg/d |
Q | 1.858405722219968 | 3.1193e-06 | au |
|
| | Orbit Determination Parameters
Additional Information
|